Theta_e
307 308 308 308 308 307 307 308 308 309 312 315 315 311 310 312 313 313 313 312 313 309 306 306 306 306 308 309 310 310 311 313 314 315 316 315 315 316 316 317 318 319 319 320 320 321 321 322 322 323 323 323 323 323 323 322 322 322 321 321 321 321 321 321 322 323 323 323 323 321 318 317 318 318 318 320 319 318 317 315 314 315 316 316 315 314 313
309 309 309 309 310 309 308 308 307 307 308 310 310 308 307 309 311 310 310 310 308 305 304 305 305 306 307 308 309 310 310 311 312 312 312 311 311 311 311 312 313 314 315 316 317 318 318 318 319 320 321 321 321 322 322 322 322 321 321 321 320 320 319 319 320 321 322 322 322 321 319 318 317 317 318 319 319 318 318 317 315 315 317 317 316 315 315
310 311 311 312 312 310 309 309 309 310 310 310 309 308 308 309 309 308 309 309 306 304 303 304 304 305 307 308 308 308 308 309 309 309 308 308 308 308 308 308 309 310 311 312 312 313 312 312 313 315 317 318 319 319 320 320 321 321 321 321 320 320 320 320 320 320 320 321 321 321 320 319 318 318 318 319 319 319 318 318 318 318 318 318 317 316 316
310 309 310 311 312 311 310 311 312 313 313 312 308 305 305 308 309 309 311 310 306 303 303 303 303 304 305 305 306 305 305 306 306 306 305 306 307 307 307 307 308 308 309 309 309 309 309 309 309 310 313 314 314 314 315 316 317 318 318 319 319 320 320 320 320 320 321 320 320 320 320 320 320 319 319 319 319 319 319 319 319 319 319 319 318 318 317
309 307 308 310 311 312 311 310 308 307 308 307 306 304 302 303 306 308 311 308 304 302 303 302 302 302 303 302 302 302 303 302 302 303 303 304 305 306 307 307 307 307 308 308 308 307 308 308 308 308 309 310 310 310 310 311 312 312 313 314 315 315 316 316 318 319 320 320 319 319 319 319 319 318 318 318 319 319 319 319 319 319 319 318 317 316 314
308 306 307 309 310 311 310 305 302 304 305 305 305 304 301 301 303 304 305 303 301 301 302 301 300 300 300 300 299 300 300 300 300 300 301 302 303 304 306 306 306 307 307 307 307 307 307 307 307 307 307 308 308 308 308 309 308 308 308 309 310 311 310 311 312 314 316 317 317 318 319 319 319 319 319 318 318 319 318 318 318 317 315 315 315 314 314
306 305 307 310 310 308 305 302 301 303 303 303 303 301 300 301 302 302 302 301 300 300 300 299 299 299 298 298 298 298 299 299 299 299 299 300 300 301 303 304 305 306 306 306 306 306 307 307 307 307 307 307 307 307 308 308 307 307 306 307 308 309 309 308 309 309 310 311 312 314 315 316 316 316 317 316 316 316 315 315 315 314 313 314 315 315 315
305 306 307 309 308 304 302 301 302 302 303 303 304 303 300 300 300 301 301 300 300 300 299 298 298 298 298 298 298 298 298 298 298 298 298 298 299 299 299 300 302 303 303 304 304 304 304 305 306 307 307 307 306 306 307 307 307 307 307 306 307 307 307 307 307 307 307 307 307 309 310 310 310 311 312 313 313 313 312 312 312 312 313 313 313 313 313
304 307 306 304 305 304 303 303 302 302 303 303 303 303 301 299 299 300 300 300 300 300 299 298 298 298 299 299 299 298 298 298 298 298 298 298 298 298 299 299 299 300 300 301 301 301 301 302 303 304 305 306 306 306 306 306 306 306 306 306 306 306 307 306 306 306 306 306 306 306 307 307 307 308 309 309 311 311 310 309 309 309 309 309 309 309 309
303 306 306 304 306 307 305 303 301 301 301 300 301 302 301 299 298 299 300 300 300 300 300 300 299 301 302 301 299 298 298 298 298 298 298 298 298 299 299 299 299 299 299 300 300 300 300 300 300 301 301 302 304 305 305 306 306 306 306 306 306 306 306 307 306 306 306 306 306 305 306 306 306 307 307 308 308 308 307 306 306 305 305 304 304 304 304
304 307 308 307 307 306 303 301 301 300 299 299 301 304 302 299 297 298 299 300 299 299 300 300 301 303 303 301 299 298 298 298 298 298 298 298 298 298 298 299 299 299 299 299 299 299 299 300 300 300 300 301 301 301 302 303 304 304 305 305 306 305 306 306 306 306 306 306 306 306 306 306 306 307 307 307 307 306 305 304 304 304 303 302 302 302 302
303 306 307 305 304 303 301 300 300 300 298 299 303 306 304 299 297 297 298 299 299 298 298 299 301 302 302 300 298 298 298 298 298 298 298 298 298 298 298 298 298 298 298 298 298 298 299 299 299 299 300 300 300 300 300 301 300 301 303 303 304 305 305 306 306 306 306 306 306 306 306 306 306 306 307 307 307 306 305 304 304 304 304 303 303 303 303
302 304 306 304 302 301 300 299 299 298 299 301 305 305 301 298 297 297 298 298 298 298 299 300 300 299 299 299 298 298 298 298 297 297 298 297 297 297 297 297 297 297 297 297 297 298 298 298 298 298 298 299 299 299 299 299 299 299 300 300 301 303 304 305 306 306 306 306 306 306 306 306 306 306 306 307 307 307 306 306 306 305 305 304 303 303 303
300 302 303 303 302 300 298 298 299 299 302 304 303 299 297 297 298 298 297 298 298 298 299 299 299 298 298 298 298 298 298 298 298 297 297 297 297 297 297 297 297 297 297 297 297 297 297 297 297 297 297 297 298 298 298 298 298 298 298 299 299 300 301 303 304 305 306 306 306 306 306 306 306 306 306 306 307 307 307 307 307 306 305 304 304 304 304
299 300 302 304 303 299 297 299 299 300 302 302 299 297 297 298 298 297 298 298 298 298 298 298 298 298 298 298 298 298 298 298 297 297 297 297 297 297 297 297 296 296 296 296 296 296 296 296 296 296 296 296 296 297 297 297 297 297 298 298 298 299 299 301 302 303 304 305 306 306 307 306 306 306 306 306 306 307 306 307 306 305 305 304 304 304 304
301 303 302 301 300 298 298 299 300 299 299 298 297 298 299 298 298 298 298 298 298 298 298 298 298 298 297 298 297 297 297 297 297 297 297 297 296 296 296 296 296 296 296 296 296 296 296 296 296 296 296 296 296 296 296 296 296 296 297 297 297 298 298 299 300 301 301 302 303 304 306 306 305 305 305 306 306 306 306 306 305 305 304 305 305 305 304
300 301 300 298 298 298 298 299 299 298 298 298 298 299 298 298 298 298 298 298 298 298 298 297 297 297 297 297 296 296 296 296 296 296 296 295 295 295 295 295 295 295 295 295 296 296 296 295 296 296 296 296 296 296 296 296 296 296 296 296 296 297 297 297 298 299 300 301 301 302 303 304 304 304 304 305 305 305 306 305 305 305 305 305 305 305 304
298 299 299 298 299 298 298 298 298 298 298 298 298 298 297 298 298 297 298 298 297 297 297 297 296 296 296 296 296 295 295 295 295 295 295 294 294 294 294 295 295 295 295 295 295 295 295 295 296 296 296 296 296 296 296 296 296 296 296 296 296 296 296 297 297 298 299 300 300 301 301 302 303 303 304 304 304 305 305 305 305 305 305 305 304 304 304
298 299 299 298 298 298 298 298 298 298 298 298 297 297 298 297 297 297 297 297 296 296 296 296 295 295 295 295 294 294 294 294 294 294 294 294 294 294 294 294 294 294 294 294 295 295 295 295 295 295 295 295 295 295 296 296 296 296 296 296 296 296 296 296 297 297 298 299 300 300 301 301 301 302 303 303 304 304 305 305 305 305 304 304 304 304 304
297 298 298 297 297 297 297 298 298 298 298 298 297 297 297 297 297 297 296 296 296 296 295 295 294 294 294 293 293 293 293 294 293 293 294 293 293 294 293 293 293 293 293 293 294 294 294 295 295 295 295 295 295 295 295 295 295 295 295 296 296 296 296 296 296 296 297 298 299 300 300 300 301 301 302 303 304 304 304 305 305 304 305 304 304 305 304
297 297 297 297 297 297 297 297 298 298 297 297 297 297 297 297 296 296 296 295 295 295 294 294 294 293 293 293 293 293 293 293 293 293 293 293 294 293 293 293 292 292 292 292 293 293 293 294 294 295 295 295 295 295 295 295 295 294 295 295 295 296 296 296 296 296 296 297 298 299 300 300 301 301 302 303 304 305 305 304 304 304 305 304 304 304 304
297 297 298 298 297 298 298 297 297 297 297 297 297 296 296 296 296 295 295 295 294 294 293 293 293 293 293 292 292 293 293 293 293 293 293 293 293 293 292 292 292 292 292 292 292 292 293 293 294 295 296 296 296 295 295 295 295 294 294 294 294 295 295 296 296 296 296 296 296 297 298 299 300 301 301 302 304 304 304 304 304 304 304 304 303 303 303
298 298 298 298 297 297 298 297 297 297 297 297 296 296 296 295 295 294 294 294 293 293 292 292 292 292 292 292 292 292 292 293 293 293 293 292 293 293 293 293 292 292 293 293 293 293 294 293 294 295 296 296 296 296 295 295 295 295 295 294 294 294 294 295 296 296 296 296 296 296 297 298 298 299 301 302 302 303 303 303 303 303 303 303 303 303 303
297 297 297 297 297 297 297 297 297 297 297 296 296 295 295 294 294 294 293 293 292 292 292 292 292 291 291 292 292 291 292 292 292 292 292 292 293 293 294 293 293 294 294 295 295 295 295 295 295 296 296 296 296 296 296 295 295 295 295 295 295 295 294 294 295 295 296 296 296 296 296 297 297 298 299 300 301 302 303 303 302 302 303 303 303 303 303
297 297 297 297 297 297 297 297 297 296 296 296 295 295 294 294 293 293 292 292 291 291 292 292 291 291 291 291 291 291 292 292 292 292 293 293 293 294 294 294 294 295 295 296 296 296 296 296 296 296 296 296 296 296 295 295 295 295 295 295 295 295 295 294 294 294 295 296 297 297 297 296 297 297 298 299 300 300 302 302 302 302 302 302 302 302 302
297 297 297 297 297 297 297 297 296 296 296 295 295 294 294 293 292 292 291 291 291 291 291 291 291 291 290 291 291 291 292 292 293 293 293 293 294 294 295 295 295 296 296 296 296 296 297 296 296 296 296 296 296 295 295 295 295 294 294 295 294 294 294 295 295 294 294 295 296 297 297 297 297 297 299 299 299 299 300 301 302 302 302 302 302 302 302
297 297 297 297 297 296 296 296 296 296 295 295 294 293 293 292 291 290 290 290 290 291 291 291 291 290 290 291 291 291 292 293 293 293 293 294 294 295 296 296 296 297 296 296 297 297 296 296 297 296 296 295 295 295 295 295 295 295 295 295 294 294 294 294 295 295 294 294 295 296 297 297 297 297 298 299 299 298 299 299 300 300 300 301 301 301 301
297 297 296 297 297 296 296 296 296 295 294 294 293 293 292 291 290 290 290 290 290 290 290 291 291 290 290 290 291 292 292 293 293 293 293 294 294 295 296 297 297 297 296 296 296 296 297 297 297 296 295 295 295 295 296 296 296 296 296 295 295 295 295 295 295 295 294 294 294 295 296 297 297 296 298 299 299 299 298 298 298 298 299 300 300 301 302
297 297 297 297 296 296 296 295 295 295 294 293 292 292 292 291 290 291 291 291 290 290 289 289 290 290 290 290 291 292 292 292 293 293 293 294 294 295 296 297 297 297 296 296 296 296 297 297 296 296 295 295 295 296 297 297 297 296 296 295 295 295 295 295 295 295 294 294 294 294 295 296 297 297 297 298 299 299 298 298 298 298 299 300 301 302 303
297 297 296 296 296 296 295 295 295 294 293 292 292 292 291 291 291 291 292 292 292 291 290 289 289 290 290 290 291 291 292 292 292 293 293 294 295 296 296 297 297 296 296 296 296 297 297 296 296 296 295 295 296 296 297 296 296 295 295 294 294 294 294 295 295 294 294 294 294 293 294 295 296 297 297 297 298 299 299 299 299 299 299 300 301 303 304
296 296 296 296 296 295 295 295 294 293 293 292 292 292 291 291 291 292 292 292 292 292 292 290 289 289 290 290 290 291 292 292 292 292 293 294 295 296 297 297 297 296 296 296 296 296 296 296 296 296 296 296 296 296 296 296 296 295 295 294 294 294 295 294 294 294 294 294 294 293 293 294 295 297 296 296 297 298 299 300 299 299 299 300 301 302 303
296 296 296 296 295 295 295 295 294 293 292 293 292 291 291 291 292 292 292 292 292 292 291 290 288 289 290 290 289 290 292 293 292 292 293 294 295 296 296 297 297 296 296 296 296 296 296 296 296 296 296 296 296 296 297 297 296 296 295 294 294 294 294 294 294 294 294 294 294 293 293 293 295 296 296 296 297 298 299 300 300 300 300 300 301 302 303
296 296 296 295 295 295 295 295 294 293 293 293 292 292 291 292 292 292 292 292 292 292 291 289 287 288 289 290 289 289 291 293 293 293 293 294 294 295 296 297 297 296 296 296 296 296 296 296 296 296 296 296 296 297 297 297 297 297 296 295 294 295 294 294 294 294 294 294 294 293 293 293 294 295 296 296 297 297 298 299 300 300 300 300 301 302 302
295 295 295 295 295 295 295 295 294 293 293 292 292 292 292 292 292 292 291 291 291 291 290 289 287 287 288 289 288 288 290 293 293 293 293 293 294 295 296 296 296 296 296 296 296 296 296 295 295 296 296 296 296 297 297 297 297 296 296 296 296 295 295 295 295 295 295 295 294 294 293 293 294 295 296 296 296 296 297 299 300 300 300 301 301 300 300
294 295 295 296 295 295 295 295 294 293 292 292 292 292 292 292 292 291 291 291 291 291 290 289 288 287 288 288 288 288 289 292 293 293 293 293 294 294 295 296 296 296 296 296 296 296 295 295 295 295 296 296 296 296 296 296 296 296 296 296 296 296 296 296 296 295 295 295 294 294 294 294 294 295 296 296 296 296 298 299 300 300 300 300 300 299 299
294 295 296 296 295 294 294 294 294 293 293 293 293 292 292 291 291 291 291 291 290 290 290 290 288 287 287 287 287 287 289 291 293 293 293 293 294 294 295 296 296 296 296 296 296 296 295 295 295 295 295 296 296 296 296 296 296 296 296 296 296 296 296 296 296 296 296 296 295 294 294 294 295 295 295 296 296 297 299 300 300 300 300 300 299 299 298
295 295 295 295 294 293 293 293 293 293 293 293 292 292 291 291 291 291 291 290 290 290 290 290 289 288 287 286 287 287 288 290 292 293 293 293 293 294 295 295 295 296 296 296 296 295 296 296 295 295 295 296 296 296 296 296 296 297 297 297 297 296 296 296 296 297 297 297 297 296 295 295 295 295 296 296 297 298 299 299 299 299 298 298 297 297 296
295 295 295 295 295 293 293 293 293 293 293 293 292 291 291 291 291 291 291 290 290 290 290 289 289 289 287 286 286 287 288 289 290 292 293 293 293 294 294 295 295 295 296 296 295 295 296 296 296 295 295 295 296 296 296 296 296 296 296 296 296 296 296 296 297 297 297 297 298 298 297 297 297 297 297 298 298 298 298 298 298 297 297 296 296 295 295
295 295 295 295 295 294 293 293 293 293 293 293 292 292 292 292 292 292 291 290 290 290 290 289 289 289 288 286 286 286 287 288 289 291 291 292 292 293 293 294 294 295 295 295 295 295 295 295 296 295 295 295 296 296 296 296 296 296 296 296 296 295 295 295 296 296 296 296 296 297 297 297 298 298 298 298 298 297 297 297 296 296 295 295 295 295 294
295 295 295 295 295 294 294 294 293 293 293 292 292 292 292 292 293 292 291 291 290 290 290 289 289 289 289 287 285 286 287 287 288 289 290 290 291 291 291 292 293 294 294 294 294 293 293 293 295 296 295 295 295 296 296 297 296 296 296 296 296 296 296 295 295 295 294 294 294 294 294 295 296 296 296 296 296 296 296 295 295 295 295 295 294 294 294
295 295 295 295 295 295 294 294 294 293 292 292 292 292 292 293 293 292 292 291 290 290 290 289 288 289 289 287 285 285 286 287 287 287 288 288 288 289 289 290 291 292 292 291 291 290 290 290 292 294 295 295 295 295 296 296 296 296 297 296 296 296 296 296 295 295 294 294 293 293 293 294 294 294 295 295 295 295 295 295 295 295 294 294 294 294 294
295 295 295 295 295 295 295 295 294 294 293 292 291 292 292 293 293 293 292 291 290 290 289 288 288 288 288 287 285 285 286 286 286 286 287 287 287 287 288 288 289 289 289 289 289 289 289 289 289 291 292 294 295 295 295 295 296 296 296 296 296 296 296 296 296 296 295 295 295 294 295 295 295 295 295 295 295 295 295 295 294 294 294 294 294 295 295
295 295 295 295 295 295 294 294 294 294 293 292 291 292 293 293 293 293 292 291 290 290 289 287 287 288 288 287 285 285 285 286 286 286 286 286 286 287 287 287 288 288 288 288 288 288 288 289 289 289 289 290 292 294 295 295 295 296 296 296 296 296 296 296 296 296 296 296 296 296 296 296 296 296 296 296 295 295 295 295 295 295 295 295 295 294 294
295 295 294 294 294 295 295 295 294 294 294 293 292 292 293 293 293 293 292 291 290 290 288 287 287 288 288 287 286 285 285 285 286 286 286 286 286 286 286 287 287 287 287 287 287 287 288 288 288 288 288 288 289 290 291 292 293 294 294 295 295 295 295 296 296 296 296 296 296 296 296 296 296 296 296 296 296 296 295 295 295 295 295 294 294 294 294
295 295 295 294 294 294 295 295 295 295 294 293 292 292 293 293 293 293 292 292 291 290 288 286 286 287 287 287 286 286 286 286 286 286 285 285 285 286 286 286 286 287 287 287 287 287 287 287 287 287 288 288 288 288 289 289 290 290 290 291 292 293 294 294 295 295 295 295 295 295 295 295 295 295 295 295 296 295 295 295 295 295 294 294 294 294 293
294 294 295 295 294 294 294 295 295 295 295 294 294 293 293 293 293 293 292 292 292 291 290 288 286 286 287 287 286 286 286 286 286 286 286 286 285 285 285 286 286 286 286 286 286 286 286 287 287 287 287 287 287 288 288 288 288 289 289 289 289 289 290 291 291 292 293 293 294 294 294 294 295 294 294 295 294 294 294 294 294 294 294 294 293 293 293
293 293 294 294 294 294 294 294 294 295 295 295 295 294 294 293 293 293 293 292 292 291 291 289 288 287 286 286 287 287 287 287 286 286 286 286 286 285 286 286 286 286 286 286 286 286 286 286 286 286 286 287 287 287 287 288 288 288 288 288 288 288 288 288 289 289 290 290 291 292 292 293 293 293 293 293 293 293 293 293 293 293 293 293 292 292 292
293 293 293 294 294 294 294 294 294 294 295 295 295 295 295 294 294 293 293 292 292 292 291 291 290 288 287 287 287 287 287 287 287 286 286 286 286 286 286 286 286 286 286 286 286 286 286 286 286 286 286 286 286 286 287 287 287 287 288 288 288 288 288 288 288 288 288 288 289 289 290 290 290 291 291 291 291 291 291 291 291 291 291 291 291 291 291
294 294 294 294 294 294 294 294 294 294 294 295 295 295 295 295 295 294 294 293 292 292 292 291 291 289 288 287 287 287 287 287 287 287 286 286 286 286 286 286 286 286 286 286 286 286 286 286 286 286 286 286 286 286 286 286 286 287 287 287 287 287 287 287 287 288 288 288 288 288 289 289 289 289 290 290 290 290 290 290 290 290 291 291 291 291 291
294 294 294 294 294 294 294 294 294 294 294 294 294 295 295 295 295 295 294 293 293 292 292 291 291 290 289 288 288 287 287 287 287 287 286 286 286 286 286 286 286 286 286 286 286 286 286 286 286 286 286 286 286 286 286 286 286 286 286 286 286 287 287 287 287 287 287 287 288 288 288 289 289 289 289 290 290 290 290 290 290 290 290 291 291 291 291
294 294 294 294 294 294 294 294 294 294 294 294 294 294 295 295 295 295 295 294 293 293 292 291 291 291 290 289 289 288 287 287 287 287 287 286 286 286 286 286 286 286 286 286 286 286 286 286 286 286 286 286 286 286 286 286 286 286 286 286 286 286 286 286 286 286 286 286 287 287 287 288 288 288 288 287 287 287 287 287 288 288 289 290 290 291 291
295 295 294 294 294 294 294 294 294 294 294 294 294 294 294 295 295 295 295 295 294 293 292 292 291 291 291 290 290 289 288 288 288 287 287 287 287 286 286 286 286 286 286 286 286 286 286 286 286 286 286 286 286 286 286 286 286 286 286 286 286 285 285 285 285 285 285 285 285 286 286 286 286 286 286 286 286 286 286 287 287 287 288 288 289 289 290
Wind_Speed
7 7 7 8 8 7 6 7 6 6 7 5 4 4 2 0 1 2 4 5 4 4 4 5 6 6 5 6 7 9 13 17 18 18 18 18 17 15 14 13 12 11 10 10 11 10 10 9 8 7 7 7 8 7 7 7 7 6 6 4 2 1 1 2 5 7 8 8 7 8 10 12 12 13 16 18 19 19 18 17 19 19 17 18 20 22 22
6 8 7 7 9 7 6 8 7 6 7 8 8 5 3 5 6 5 8 10 8 4 4 5 5 4 4 7 11 13 16 18 21 23 23 22 21 19 18 17 15 14 13 12 11 10 10 9 9 8 8 8 8 7 7 7 7 6 6 5 4 3 2 1 1 3 4 5 5 5 8 11 12 12 14 17 20 20 19 17 18 18 17 17 18 20 21
3 6 6 6 8 8 6 5 5 5 6 6 6 5 4 6 8 6 8 10 8 4 5 5 5 4 8 12 15 16 15 17 23 25 24 24 23 23 22 20 19 17 16 14 13 12 11 10 10 10 10 9 9 8 8 7 7 6 5 5 5 4 3 2 1 1 2 3 5 6 7 10 12 13 14 15 18 19 20 19 19 18 17 17 17 18 19
2 2 3 5 7 7 4 2 3 5 4 3 4 4 3 2 4 7 7 6 5 3 5 6 7 10 14 15 16 16 17 20 24 25 25 25 24 23 22 20 19 17 16 15 15 15 14 12 10 10 10 9 8 8 7 7 7 6 5 5 4 3 2 1 1 2 3 5 6 7 9 11 13 14 15 15 16 18 19 18 18 18 17 17 17 17 17
3 1 2 3 4 3 3 2 1 2 2 2 3 4 5 5 0 3 3 4 5 4 4 6 10 13 15 15 15 16 18 22 26 27 26 25 23 22 20 19 19 18 16 15 13 13 13 12 11 11 9 7 8 8 8 7 6 6 5 5 4 3 2 1 1 3 4 6 7 8 9 11 12 14 16 16 16 18 19 19 18 18 17 15 14 13 12
3 3 4 4 2 2 1 3 2 2 1 4 5 4 6 6 3 3 6 7 7 6 5 8 11 12 13 14 16 18 20 22 25 26 26 25 22 21 19 17 16 16 15 14 12 10 10 10 10 9 8 7 7 6 6 5 5 4 4 4 3 3 3 2 2 2 3 4 6 7 8 8 10 12 14 16 17 18 19 18 17 15 13 11 9 9 8
3 4 5 5 3 2 2 5 2 1 4 9 12 10 9 8 6 8 11 10 9 9 10 12 14 15 16 18 20 22 23 23 24 24 24 23 22 20 19 16 14 13 12 11 10 9 8 7 5 5 4 4 4 3 2 1 1 1 1 1 1 1 2 3 3 3 2 1 3 4 5 5 6 8 10 11 12 12 11 10 10 9 8 8 8 7 7
3 4 4 3 1 1 2 3 2 3 4 5 8 10 9 8 6 6 11 11 10 11 12 12 15 17 20 21 21 20 21 21 21 21 21 20 19 18 18 16 15 12 11 10 10 9 8 7 5 4 3 3 4 4 2 2 3 3 3 3 3 4 4 4 4 4 4 4 4 3 4 4 4 5 6 7 7 6 6 6 7 7 7 7 7 7 7
2 3 2 0 1 1 2 3 1 0 1 0 1 4 5 5 5 3 8 9 8 8 9 10 12 13 14 14 14 16 16 17 17 17 16 15 14 14 13 13 12 11 9 9 8 8 8 8 7 7 5 5 5 5 5 5 4 5 5 6 6 8 8 7 7 6 5 6 6 6 7 8 7 6 6 6 6 6 6 6 6 6 7 7 7 8 8
1 3 3 1 1 2 3 4 1 1 1 2 2 2 4 3 4 2 5 6 5 5 5 7 6 5 6 6 7 10 12 12 11 12 12 11 11 11 10 9 8 7 7 6 6 7 7 7 7 7 7 7 7 6 6 7 7 6 6 6 7 9 9 8 8 8 7 7 7 7 8 8 8 7 7 7 7 7 6 6 6 7 7 7 8 8 8
1 2 3 3 2 0 1 1 1 3 3 3 3 2 3 2 2 2 5 5 4 3 3 4 5 3 2 4 3 6 9 9 9 9 9 9 9 9 9 9 8 8 8 8 8 8 8 9 9 9 8 8 8 8 8 7 8 9 10 9 9 10 10 9 9 10 10 9 8 8 7 7 7 7 7 7 7 7 7 8 8 7 6 7 7 7 7
2 2 1 2 2 0 2 2 4 6 3 3 5 4 4 3 2 4 7 7 7 7 7 6 3 1 2 4 2 4 6 7 7 8 8 9 9 10 10 10 10 10 11 11 12 12 12 13 13 13 13 13 12 12 11 10 10 11 12 12 12 12 11 11 11 11 11 11 10 9 9 9 9 9 9 9 8 8 8 9 10 8 7 7 7 7 7
2 2 2 0 1 1 1 4 6 4 1 4 4 2 4 6 5 8 10 10 10 11 10 8 6 5 5 5 2 2 4 5 6 7 9 9 10 11 12 12 12 13 13 14 14 15 15 16 16 17 18 18 17 17 17 15 15 15 15 15 14 14 13 14 15 15 15 14 13 12 11 11 11 11 12 12 11 11 11 12 12 11 9 8 7 7 7
1 2 2 1 0 1 2 5 4 2 2 3 2 4 8 9 8 10 10 10 10 11 11 10 8 6 4 2 1 3 6 7 8 10 11 12 12 13 14 15 16 16 17 17 18 18 18 19 19 20 21 22 22 22 21 20 19 20 20 19 18 18 17 17 18 19 20 20 18 17 16 16 16 16 16 15 14 14 14 14 14 13 11 10 9 8 9
1 2 2 1 2 1 5 4 1 2 1 4 8 9 10 10 10 10 10 9 8 8 8 8 6 4 2 3 4 7 9 11 12 14 15 16 17 18 18 19 20 21 21 21 22 22 21 22 22 23 24 25 25 25 24 23 23 23 23 23 23 23 22 21 20 20 22 23 24 24 23 23 22 22 22 22 23 23 22 20 18 15 14 14 14 13 13
0 1 2 1 0 4 5 2 2 5 7 11 13 10 9 10 9 8 8 8 7 6 7 6 6 5 6 7 9 11 13 14 16 17 18 19 20 21 22 22 23 24 24 25 25 25 24 24 24 25 25 26 27 28 27 26 26 26 26 26 26 26 26 26 26 24 23 23 24 25 26 25 24 23 23 24 26 27 27 27 25 22 21 20 19 17 16
2 3 3 2 2 5 7 9 11 12 13 13 11 9 10 9 7 7 7 6 6 6 6 7 8 9 10 12 13 15 16 17 19 20 20 21 22 22 23 23 24 24 25 25 25 25 25 25 25 25 26 27 29 29 29 28 28 29 28 28 28 28 28 28 29 29 28 26 24 24 25 25 25 24 23 23 23 25 26 28 28 27 26 24 22 19 18
5 6 6 3 3 6 11 14 13 12 12 10 8 8 8 8 6 5 5 5 5 7 8 9 10 11 13 15 16 17 18 19 19 20 21 21 22 22 23 23 23 24 24 25 25 25 24 24 24 25 26 27 29 30 30 30 30 30 30 30 30 29 29 29 30 30 30 30 28 26 26 26 26 27 27 26 25 25 27 28 27 25 24 23 20 19 18
2 3 3 2 3 5 8 10 10 10 9 8 6 6 6 5 4 4 4 5 7 9 10 11 12 13 14 15 16 16 17 17 18 19 20 21 22 22 23 23 24 24 24 24 25 25 25 25 24 25 25 26 28 29 30 31 31 32 32 32 32 32 31 30 30 31 31 30 29 28 27 27 27 29 30 30 29 28 28 29 28 25 25 23 22 20 19
2 3 4 3 3 4 5 7 9 9 8 7 6 5 4 3 2 3 5 6 8 10 11 11 11 11 11 13 15 16 17 18 19 21 21 22 23 23 23 22 22 21 20 20 21 23 24 24 24 24 25 25 26 27 29 30 31 32 33 34 35 35 34 33 32 32 32 31 30 28 27 26 26 27 29 31 32 31 31 31 29 27 25 24 22 21 18
4 3 4 5 4 3 4 6 8 8 7 5 4 3 2 1 2 4 6 7 9 9 9 9 9 10 11 13 16 17 18 19 21 21 22 21 21 20 18 17 16 15 15 15 17 17 18 19 19 18 18 19 19 21 22 24 26 29 31 33 35 36 37 36 35 34 33 33 32 31 29 26 24 24 26 29 31 33 32 32 29 26 24 23 22 20 18
3 2 6 9 4 2 6 9 8 7 5 4 3 2 0 2 3 5 6 7 7 7 7 7 9 10 12 15 16 17 18 19 19 18 17 17 16 15 14 13 13 13 12 12 12 12 13 14 15 16 17 18 18 18 19 19 21 23 26 29 32 35 37 38 38 36 34 33 33 32 31 29 26 23 23 26 30 32 33 32 30 28 26 23 21 20 19
1 3 12 13 3 3 7 12 9 6 5 3 2 1 2 3 4 5 6 5 4 4 5 7 9 11 13 14 16 17 17 16 14 13 13 13 13 13 13 13 13 13 12 11 12 13 14 16 17 18 20 21 21 21 21 21 22 23 24 26 28 31 34 37 39 37 34 33 32 31 31 30 28 25 23 24 27 30 32 33 32 30 28 24 21 20 19
2 3 13 14 4 4 7 10 8 6 5 3 2 2 2 4 4 4 3 2 3 3 4 7 9 11 12 14 16 16 15 12 11 10 10 11 11 11 11 11 11 11 11 12 13 15 16 17 19 20 22 23 23 23 23 23 23 24 25 26 28 28 29 32 36 38 37 34 31 29 29 29 27 26 25 24 23 25 29 31 30 28 26 24 22 20 17
5 7 13 13 4 3 6 8 6 5 4 3 3 2 3 4 3 2 2 3 4 5 5 6 8 11 13 15 16 15 13 10 9 10 10 9 9 9 10 9 10 12 13 15 16 17 18 19 21 22 24 25 25 25 24 23 23 24 25 27 28 29 28 28 29 32 35 36 33 30 28 28 26 25 25 25 23 22 25 27 26 26 25 22 19 17 15
7 9 11 10 5 4 6 6 5 5 4 3 3 3 4 3 0 2 3 4 5 6 6 7 9 11 13 15 16 14 11 9 9 9 9 8 7 8 9 10 11 14 15 15 16 17 19 20 22 24 26 27 26 25 23 21 21 22 24 25 27 28 29 28 27 26 28 32 36 34 31 28 26 24 24 25 25 23 22 22 23 25 25 23 21 19 19
7 7 8 7 5 6 6 5 4 4 4 3 3 3 3 2 2 2 3 4 5 6 6 7 9 10 12 14 15 13 10 8 8 8 7 7 7 8 8 10 12 14 14 15 16 17 20 22 25 27 28 27 25 22 20 19 20 21 22 23 25 28 28 28 28 26 23 25 32 37 36 31 28 26 24 23 25 26 25 24 21 21 21 22 22 21 21
6 6 5 4 3 4 5 5 5 4 3 4 4 4 3 3 2 2 2 4 5 6 6 7 8 10 12 13 14 13 10 7 6 7 6 6 7 7 7 9 12 14 14 15 17 20 23 26 28 30 28 25 21 18 17 19 20 22 23 23 23 25 25 25 26 27 25 22 25 33 38 35 30 27 24 21 21 25 28 26 22 19 18 19 19 20 21
6 7 5 3 1 1 3 5 5 3 3 4 5 5 5 4 3 1 1 4 6 7 8 8 8 10 12 12 13 13 11 9 6 6 5 5 7 7 6 8 11 12 13 16 19 21 24 28 30 31 29 24 19 17 17 18 20 21 23 24 24 24 25 24 23 24 25 23 21 25 34 37 33 29 26 22 19 21 24 24 22 21 20 18 17 20 23
7 7 6 4 2 1 3 4 3 2 3 5 6 6 6 6 4 2 2 4 6 7 9 10 9 10 11 11 11 12 12 10 7 5 4 6 6 5 5 8 11 13 14 17 19 21 24 28 31 32 30 25 20 18 17 18 19 21 21 20 21 22 23 22 21 20 21 22 20 21 28 35 35 31 27 23 19 18 20 23 23 22 20 17 17 20 25
7 7 7 5 3 3 3 3 2 3 4 6 6 7 7 6 4 3 4 6 7 8 9 10 9 9 10 11 11 11 11 10 7 5 5 5 5 4 5 9 12 14 15 17 19 21 24 27 30 33 32 27 21 18 17 17 19 21 19 17 16 16 14 14 15 15 16 18 19 18 21 29 34 32 27 24 20 17 17 20 23 22 21 19 18 19 23
7 7 7 6 5 6 6 4 3 5 6 6 7 7 7 5 4 4 6 7 8 8 8 9 9 9 9 11 12 12 10 8 7 5 5 4 4 4 5 8 11 13 15 16 18 20 23 26 29 33 34 31 24 19 16 17 19 20 19 17 14 11 6 2 5 8 10 12 14 14 16 23 30 31 27 24 21 18 16 17 19 20 18 18 17 17 20
5 7 7 8 8 9 9 7 6 6 7 7 7 7 6 5 5 6 7 8 8 7 8 9 9 9 9 10 12 12 11 9 7 5 5 4 3 4 6 7 10 12 13 14 16 18 21 25 28 30 34 34 29 21 16 16 18 19 18 16 15 12 8 5 1 3 7 10 11 11 13 20 27 30 27 23 21 19 15 14 15 15 15 16 18 18 20
3 3 4 5 6 7 8 8 8 8 8 7 7 6 5 5 5 6 7 8 7 6 8 9 10 9 9 10 10 11 10 9 7 5 4 4 3 4 5 6 9 11 11 12 14 16 20 23 26 28 31 34 32 25 18 17 19 19 17 15 15 13 11 8 5 1 3 7 8 9 11 17 24 26 25 22 20 17 12 11 13 15 15 15 15 16 17
4 4 4 4 4 4 6 7 8 9 9 8 6 6 5 5 6 6 6 6 6 6 8 9 10 9 9 9 8 9 9 9 8 7 5 4 4 4 4 5 8 9 8 8 12 16 19 21 24 26 28 31 33 29 22 17 18 19 18 16 15 14 13 11 8 5 3 5 7 8 11 16 21 23 22 21 18 14 10 9 12 12 11 9 10 12 15
5 5 4 4 3 4 7 9 9 9 10 8 7 6 5 4 4 5 6 6 6 7 7 8 9 9 8 7 6 7 7 7 8 7 5 4 5 5 5 6 7 6 5 6 11 16 18 19 21 23 25 27 30 31 27 21 16 16 16 15 14 13 13 13 13 12 10 8 8 9 12 15 18 19 18 17 15 13 10 9 9 8 8 7 9 12 16
4 4 5 4 3 3 7 10 11 10 10 9 7 6 4 4 4 5 6 6 7 7 7 7 8 8 7 6 6 6 6 7 8 7 6 5 4 4 4 5 5 4 4 7 12 16 18 19 19 19 22 24 26 28 29 26 21 17 17 16 16 14 13 12 12 14 14 13 11 10 12 14 15 16 17 17 17 15 12 9 8 9 9 9 11 15 20
4 4 5 5 5 4 7 9 10 10 10 9 7 6 5 5 6 6 6 6 7 7 7 7 7 8 8 6 6 5 6 6 7 7 6 5 4 3 3 4 5 5 6 9 13 15 16 17 17 16 18 21 23 24 26 27 25 24 22 21 20 19 17 15 14 13 13 13 12 12 13 14 15 15 15 15 14 12 10 10 11 12 14 16 19 22 24
4 4 4 6 7 7 8 9 9 9 10 10 8 7 6 6 7 8 7 6 6 6 6 6 6 7 7 6 5 4 5 5 6 6 6 5 4 4 5 6 7 7 8 9 12 14 14 14 15 15 16 18 19 20 21 23 24 25 25 25 25 24 23 22 20 18 16 14 12 12 11 12 14 14 14 13 12 12 13 14 16 18 22 24 24 24 24
4 3 3 5 7 8 10 10 9 9 10 10 9 7 6 6 8 8 7 6 6 6 6 5 6 6 6 6 4 3 3 4 4 4 5 5 4 4 5 5 6 6 7 8 10 12 12 12 12 14 15 16 16 17 18 19 20 21 22 24 25 25 25 25 24 23 21 19 18 16 15 15 16 17 18 18 18 18 19 20 22 23 24 23 23 22 20
5 4 3 4 5 7 10 10 9 9 9 10 9 7 6 7 8 8 8 7 6 6 6 5 5 5 5 5 4 3 2 3 3 3 4 4 4 3 3 4 5 5 6 8 9 10 11 11 12 13 15 15 15 14 14 15 16 18 19 20 21 22 23 23 23 23 22 22 21 21 20 20 20 22 22 23 22 22 22 22 22 22 21 21 20 18 16
5 4 5 5 5 6 8 9 10 10 10 10 10 8 6 7 8 9 8 7 7 6 6 5 4 3 3 4 4 3 3 3 3 3 3 3 3 3 4 4 4 4 5 7 9 9 9 10 11 12 14 14 14 13 12 12 13 15 16 17 18 18 19 19 20 20 20 20 20 20 19 19 19 20 21 21 20 20 19 19 19 19 18 17 15 12 10
5 4 5 5 5 5 6 7 9 10 11 11 11 9 7 7 8 8 8 7 6 6 5 4 3 2 2 3 4 4 4 3 3 3 4 4 4 4 4 3 3 4 5 7 8 8 8 9 10 12 13 13 12 12 11 12 13 13 14 15 16 16 17 17 18 18 18 19 19 19 19 18 18 18 18 17 17 17 16 16 15 15 13 12 11 10 9
5 5 5 4 4 4 5 6 8 10 11 12 12 10 8 7 7 7 7 7 6 5 5 4 2 2 1 2 4 5 5 4 3 3 3 4 4 3 3 3 3 4 5 6 7 6 7 8 10 11 11 12 12 11 11 12 12 12 12 13 14 14 15 15 16 16 17 17 18 18 18 18 17 17 16 15 15 15 14 14 13 13 12 11 11 11 10
7 6 6 5 5 6 6 6 7 8 9 10 12 12 10 9 8 7 7 7 6 5 4 3 2 2 2 1 3 4 5 4 3 2 2 3 3 3 3 2 2 3 4 5 6 6 6 8 9 10 10 10 11 11 11 12 12 12 12 12 12 12 13 13 13 13 14 14 14 15 15 15 15 15 14 14 13 13 13 13 12 11 11 11 10 10 10
9 8 8 8 8 7 7 7 7 8 9 10 12 13 13 12 10 8 7 7 6 6 5 4 2 2 2 1 2 3 3 3 2 2 1 1 1 2 2 2 3 4 5 6 6 6 7 8 8 9 9 10 9 9 10 11 12 12 11 11 11 11 11 11 11 11 11 11 11 11 11 11 11 11 11 10 10 10 10 9 9 9 9 9 8 8 8
10 9 9 9 9 9 8 8 9 9 10 12 14 15 15 14 12 10 9 8 7 7 6 4 3 2 2 1 1 2 3 2 2 1 1 1 1 1 2 3 3 4 5 6 7 7 8 9 9 9 10 9 9 9 10 10 10 11 11 11 11 11 10 10 10 9 9 9 8 8 8 8 8 7 7 7 7 6 6 6 6 6 6 6 6 6 7
11 10 9 10 10 11 11 11 11 11 12 13 14 15 14 14 14 13 11 10 9 8 6 5 5 4 2 1 1 1 1 1 1 1 1 1 2 2 3 4 5 5 6 7 8 8 9 10 10 10 11 10 10 10 11 10 10 10 10 11 11 11 11 10 10 9 9 8 8 7 7 6 6 5 5 5 4 4 4 4 4 4 4 5 5 6 6
11 11 12 12 12 12 12 12 12 13 14 15 15 14 14 14 15 15 14 13 12 10 8 6 6 5 4 3 2 1 1 0 0 0 0 1 1 2 3 4 5 6 7 8 9 9 10 10 10 11 11 11 11 12 12 11 11 10 10 10 10 10 10 11 11 11 10 10 9 9 9 8 8 8 7 7 6 6 5 5 5 4 4 3 3 4 4
10 12 14 14 14 13 13 13 13 13 14 15 15 14 13 13 15 16 16 15 14 12 10 8 7 7 6 5 4 2 2 2 2 1 1 1 1 2 2 3 5 6 7 8 9 10 10 11 11 11 11 12 12 12 12 12 12 11 11 11 10 10 10 10 10 10 10 10 10 10 10 11 10 10 10 9 9 8 7 6 6 6 5 5 4 4 4
10 11 12 13 14 15 16 16 15 14 14 15 15 15 14 13 14 15 16 16 16 15 13 11 9 8 7 7 6 5 4 3 3 3 3 3 3 3 3 3 4 5 6 7 8 9 9 10 10 11 11 11 12 12 12 12 12 12 12 11 11 11 11 10 10 10 10 10 10 10 11 11 11 10 10 10 9 9 8 8 7 7 7 8 8 7 7
11 11 10 10 12 14 16 17 17 16 15 15 15 15 14 14 14 15 15 16 17 17 15 13 11 9 8 7 7 7 6 5 4 4 4 4 4 4 4 4 4 4 5 6 7 8 8 9 9 10 10 11 11 11 11 11 11 11 11 11 11 11 11 11 10 10 9 9 9 10 10 11 10 10 10 10 10 10 10 10 10 10 10 9 10 10 10
Wind_Direction
55 44 42 46 62 80 66 45 26 3 5 27 61 58 12 12 142 149 126 111 97 62 18 8 11 9 26 44 51 71 83 90 93 89 84 80 74 73 74 73 76 79 81 81 80 84 88 89 92 96 99 104 107 107 107 100 97 99 101 107 123 163 205 212 201 201 207 216 229 236 228 221 221 223 225 227 229 232 235 238 240 242 245 246 244 243 245
29 11 13 33 53 65 55 46 40 26 33 54 68 61 51 79 78 78 102 99 81 43 5 14 18 19 54 66 67 73 78 84 88 85 80 77 74 74 74 73 73 74 73 72 71 74 78 76 74 74 75 79 83 88 91 89 89 94 96 92 89 92 87 58 198 204 206 213 225 233 228 226 229 231 232 231 232 234 236 238 241 244 246 243 243 249 254
9 341 348 15 45 53 46 34 21 21 39 52 60 60 54 76 88 95 96 91 80 45 28 39 42 49 66 67 63 61 61 71 81 80 75 75 76 77 78 77 78 79 78 76 73 71 70 67 66 68 67 66 67 71 75 76 79 84 88 89 86 86 90 81 75 173 215 229 234 237 238 237 237 237 235 234 235 237 239 242 243 242 242 243 246 251 255
185 292 347 14 39 40 19 355 360 8 19 39 57 60 17 18 123 131 112 94 92 82 68 65 61 63 66 62 58 60 60 66 75 76 72 74 76 77 79 79 80 80 79 78 76 74 72 68 66 67 69 73 77 77 76 76 77 79 81 83 84 81 80 86 209 215 222 232 239 243 243 241 239 239 238 236 236 237 240 243 244 241 242 247 250 253 254
165 117 83 61 49 25 308 289 50 31 44 96 85 52 22 359 317 152 121 112 118 118 105 85 68 62 63 59 57 63 67 70 75 76 74 74 74 75 76 76 76 76 74 73 73 73 72 68 63 59 58 69 80 83 86 88 87 87 85 85 90 94 91 98 251 245 240 241 245 248 245 239 235 234 235 235 235 234 236 238 239 239 239 242 244 246 249
139 108 115 114 130 186 271 337 292 261 100 105 100 61 25 16 27 80 92 107 116 115 107 95 84 74 68 65 66 70 73 75 75 75 75 75 73 73 73 73 74 74 72 73 74 75 75 72 67 63 56 55 61 67 78 86 88 90 88 88 99 109 118 139 178 219 242 253 259 260 253 243 236 234 236 239 238 234 230 229 232 233 231 228 228 228 225
120 125 129 136 176 222 348 358 333 171 116 105 97 78 45 35 60 92 99 106 112 111 105 99 96 91 82 75 71 71 73 75 74 73 71 71 72 72 71 72 74 72 69 69 70 71 69 66 69 74 66 49 34 25 31 48 56 68 80 100 132 155 159 153 156 176 195 225 265 268 264 254 243 237 238 239 239 234 224 215 218 220 214 209 206 199 193
129 147 155 161 184 333 12 36 62 94 113 112 93 74 47 25 28 87 106 111 115 115 112 108 103 97 87 77 68 66 69 70 70 69 65 63 65 66 66 67 68 67 62 55 52 49 42 33 25 12 359 351 348 343 325 296 291 293 289 272 253 250 247 239 239 240 231 220 216 223 231 231 226 231 235 231 227 222 206 192 194 197 196 198 198 194 196
143 134 133 86 349 302 157 137 128 73 91 360 73 81 65 28 4 62 111 119 125 128 129 126 116 102 90 78 61 55 59 63 64 64 62 59 58 57 58 60 60 61 58 51 46 41 34 26 17 9 357 336 321 314 303 293 292 296 297 294 285 277 272 265 262 267 262 247 240 238 241 242 236 229 227 220 209 203 199 200 207 213 216 218 219 219 222
82 105 116 126 255 218 166 133 107 23 360 272 248 130 99 52 6 42 118 122 125 138 157 166 158 123 92 85 56 39 43 50 54 55 52 48 43 39 38 37 35 33 30 23 17 12 8 1 356 354 350 342 330 318 305 293 286 286 288 291 292 287 280 269 261 262 264 263 261 253 243 238 234 224 212 203 200 203 212 221 226 226 227 229 227 225 226
104 122 145 181 191 180 74 100 23 336 311 244 217 161 125 94 19 96 119 107 95 99 118 154 182 201 127 109 68 23 24 29 31 32 31 28 23 18 11 4 357 352 348 343 339 335 329 323 320 319 320 323 323 320 315 307 298 290 282 279 281 280 274 265 255 252 251 247 246 242 228 217 218 222 218 211 210 213 212 209 209 210 210 210 210 212 216
146 139 147 215 206 46 8 331 323 328 317 190 190 187 155 140 120 112 105 88 73 72 83 97 101 38 90 106 75 10 11 13 9 6 6 2 357 353 348 340 336 333 328 324 321 318 315 311 308 305 301 299 298 299 300 302 304 298 288 282 279 271 261 248 235 231 230 222 217 219 218 215 218 225 227 223 221 218 208 203 207 214 214 211 214 224 235
128 149 141 148 237 185 274 304 323 337 154 172 201 190 131 127 124 108 96 86 79 77 79 83 74 61 78 93 79 353 347 350 348 347 348 344 338 335 330 325 322 319 315 314 313 311 310 308 304 302 299 296 294 291 288 288 292 291 288 285 280 272 260 246 236 233 230 222 213 210 215 220 223 224 224 223 226 225 219 219 224 227 227 227 232 243 257
90 126 117 94 157 109 330 313 328 9 175 187 160 114 116 121 121 110 98 91 86 81 79 82 87 93 95 81 360 331 334 335 334 331 329 327 323 320 317 315 313 311 308 306 305 303 302 302 300 298 296 294 293 291 289 287 286 283 281 279 277 273 267 258 251 246 242 239 236 233 235 237 235 232 226 225 229 231 228 227 230 232 233 238 247 259 273
113 115 99 164 172 40 345 316 313 16 356 138 125 118 116 117 117 110 99 89 83 81 80 79 79 79 53 349 329 327 325 324 325 323 322 321 318 314 313 311 309 308 306 303 300 299 299 299 298 297 294 292 291 289 288 288 285 282 279 276 274 272 270 266 262 256 251 249 247 247 248 249 247 244 240 238 242 244 242 239 239 242 247 253 258 265 274
288 140 113 120 30 1 348 342 89 78 98 122 124 119 113 115 114 104 91 82 68 56 52 42 24 5 344 331 324 321 319 318 318 317 316 315 313 311 310 308 307 306 304 301 299 298 297 296 296 295 294 292 289 287 286 286 284 281 279 277 274 271 268 266 265 262 258 255 251 249 249 248 246 244 243 243 246 245 243 242 242 244 249 253 255 259 263
46 64 82 94 29 30 58 87 97 99 107 115 115 107 104 103 98 87 80 73 50 27 15 2 350 340 332 327 323 319 317 317 315 314 313 312 310 309 308 307 306 304 302 301 300 298 296 294 292 290 289 287 285 284 283 282 281 279 277 275 272 269 266 263 262 261 260 258 255 251 246 241 238 237 238 240 241 240 239 239 238 238 240 242 247 251 255
88 61 60 66 45 57 79 93 101 104 104 101 93 89 89 84 75 65 53 38 13 352 343 338 335 331 325 321 318 316 316 317 316 316 315 313 313 312 311 310 309 307 305 304 303 301 298 295 291 288 285 282 281 280 279 277 276 276 275 273 271 267 263 260 258 258 258 257 255 253 249 244 239 236 235 236 237 237 237 235 231 230 231 233 237 242 245
113 88 92 79 57 76 92 100 104 104 102 99 90 80 80 75 60 33 7 355 338 329 328 326 324 324 321 319 319 321 322 323 322 319 317 317 316 315 315 315 314 313 312 310 309 307 304 301 298 293 289 285 282 280 279 276 274 272 270 270 269 268 265 260 256 253 253 253 252 250 249 248 245 241 237 235 233 233 235 234 229 228 231 232 232 233 234
59 107 127 120 99 110 121 122 124 123 116 109 100 88 82 69 26 353 337 330 324 321 322 321 323 327 329 329 329 329 329 327 323 320 319 318 318 318 319 319 319 318 318 316 314 313 310 309 307 302 297 293 288 284 281 277 274 272 269 267 266 266 266 264 260 255 252 250 249 247 246 246 246 245 241 236 231 230 232 234 232 229 229 230 229 229 231
90 94 128 144 136 138 156 153 145 140 132 124 120 113 91 20 333 322 314 313 315 317 320 326 334 339 338 335 331 329 326 323 321 320 321 321 323 325 325 325 325 324 321 319 317 316 317 320 320 318 315 312 307 301 293 285 278 272 268 265 263 262 262 262 261 258 254 250 248 246 245 243 243 244 241 236 231 227 227 230 231 230 230 231 231 233 234
130 156 173 169 151 131 176 175 166 160 158 147 135 130 23 311 307 308 307 309 315 321 329 337 340 339 335 331 328 325 323 321 321 324 328 331 335 337 337 336 334 332 332 332 331 334 340 343 344 346 347 346 341 332 321 309 297 286 277 270 263 259 257 257 257 256 254 251 248 246 244 243 241 240 237 234 231 228 227 228 228 226 227 229 230 231 231
119 187 180 175 130 53 166 177 178 177 176 167 161 210 276 290 296 298 300 310 325 335 336 334 333 332 331 330 329 326 324 324 329 333 337 342 345 346 347 347 345 345 351 354 352 350 350 347 345 345 346 346 342 333 324 316 308 300 293 284 275 266 260 255 253 252 252 251 248 247 246 244 241 239 236 232 229 227 227 228 226 223 221 219 216 217 221
75 150 176 175 129 68 155 174 180 183 187 203 230 260 286 289 294 300 313 353 8 347 328 324 326 330 333 335 335 331 328 331 337 337 340 345 346 347 352 353 350 351 354 352 348 344 341 338 337 337 335 334 331 324 317 310 302 296 292 288 283 279 272 264 256 251 248 247 246 245 246 245 242 239 237 235 231 227 226 230 231 225 218 212 207 206 213
110 132 164 174 160 113 155 170 183 195 204 224 247 284 296 288 296 342 22 13 353 334 326 324 329 335 338 341 340 335 330 332 334 332 336 342 346 353 0 359 351 347 345 343 342 339 335 333 331 328 326 326 325 320 315 309 300 293 288 284 281 280 278 275 267 257 249 244 241 239 242 243 241 238 237 236 233 227 224 226 227 223 218 220 224 223 223
120 135 159 173 174 161 164 173 194 208 216 232 257 281 282 273 320 53 26 357 342 334 329 328 333 338 340 341 342 337 330 328 327 325 328 336 348 4 12 5 354 349 347 346 345 341 336 334 331 328 328 328 326 322 316 310 302 295 289 285 281 278 276 274 272 266 256 246 239 235 236 239 239 236 234 233 231 228 224 221 220 220 224 230 235 231 222
132 143 153 160 168 182 188 196 206 207 215 237 256 262 249 207 111 59 21 4 352 341 332 328 331 337 340 343 346 343 335 329 322 316 321 333 349 7 19 12 2 358 356 354 351 347 345 344 340 338 337 335 331 326 322 317 311 303 297 290 284 280 276 271 268 265 260 251 240 233 231 232 233 234 234 232 230 229 228 226 226 227 226 225 225 222 216
153 162 161 159 174 192 203 211 207 198 216 237 235 224 203 175 130 75 31 15 4 353 340 329 329 336 343 349 351 348 345 342 325 309 315 339 354 9 24 19 8 1 358 357 358 357 357 353 349 346 344 342 338 333 327 321 315 309 306 302 293 285 280 274 266 261 258 254 244 234 229 228 229 231 232 232 229 228 228 229 233 235 228 223 225 225 219
171 181 194 217 240 180 187 195 197 209 236 223 204 193 187 182 181 198 355 357 356 355 348 339 335 339 344 351 354 351 351 353 338 314 322 357 10 17 22 16 6 360 357 359 1 0 360 357 353 351 353 352 345 336 328 322 318 315 311 306 297 288 281 274 267 259 254 252 249 237 228 225 225 228 229 229 228 226 225 224 225 226 223 221 224 223 218
185 192 210 228 240 163 172 180 192 231 229 199 189 191 193 197 215 249 308 330 334 339 341 338 338 341 344 350 356 355 353 354 348 336 349 13 22 23 13 5 1 359 360 2 360 358 360 0 358 358 1 360 350 341 339 337 333 330 324 314 304 293 281 270 264 259 250 246 248 242 229 222 220 223 226 226 225 223 218 214 213 215 217 217 219 220 217
187 198 212 217 205 185 187 193 214 223 202 189 194 201 200 206 234 274 313 328 330 331 330 328 331 338 342 346 353 356 355 355 352 351 4 18 25 23 10 1 356 355 358 360 357 357 2 3 1 3 7 6 358 354 355 351 346 345 343 336 325 310 287 263 256 256 247 240 243 242 229 218 216 218 221 222 223 221 213 209 210 212 215 219 221 226 226
179 192 204 209 207 204 206 214 220 208 197 197 203 206 207 222 261 298 320 328 330 328 323 322 328 335 337 340 345 350 355 359 357 353 3 18 23 17 9 0 353 351 354 356 357 1 5 5 4 7 11 11 9 6 359 353 354 358 0 359 354 349 339 265 239 245 240 232 233 237 228 215 211 213 216 218 219 220 214 210 211 213 215 220 222 227 233
181 187 203 214 216 216 221 226 220 206 200 202 204 205 216 244 280 305 318 325 328 327 323 327 333 334 332 334 339 343 351 5 12 7 14 32 32 11 6 1 354 351 352 356 1 6 8 8 7 9 11 14 15 13 5 1 5 9 10 12 18 25 34 49 97 220 225 220 219 226 224 212 207 209 212 213 216 220 220 215 213 213 216 224 226 226 229
203 200 219 229 230 229 229 228 219 207 201 200 202 209 231 263 287 303 316 324 326 325 328 335 341 336 328 329 336 341 351 11 25 26 29 44 33 3 357 355 349 348 350 358 7 12 14 13 11 11 13 15 17 19 17 17 21 24 24 24 27 33 38 45 54 80 218 212 208 208 206 201 202 205 207 209 214 220 218 213 215 217 221 230 233 230 227
212 217 235 253 259 240 216 206 204 204 202 201 209 225 247 273 291 304 318 322 320 322 330 339 344 338 326 324 335 344 351 8 24 26 22 16 1 349 347 342 339 343 350 1 10 17 19 17 15 14 15 16 19 22 25 26 30 34 35 33 32 36 43 51 53 56 102 165 178 179 179 186 194 199 202 207 213 213 207 210 217 216 214 219 221 217 214
205 217 233 252 266 238 205 192 189 193 200 207 220 234 249 275 298 312 320 319 314 319 328 335 343 343 330 319 330 346 355 8 21 25 17 1 348 345 342 335 333 341 359 13 16 20 21 20 18 19 19 19 21 25 28 31 33 32 31 33 39 47 54 58 54 52 66 102 136 153 162 173 183 191 194 198 203 207 212 217 210 189 179 192 202 197 190
196 211 221 226 242 228 199 188 184 189 203 215 224 232 247 279 308 320 324 319 313 316 322 327 338 347 342 328 332 350 2 10 18 22 22 12 354 341 336 335 338 353 16 19 19 21 21 19 19 24 26 24 23 27 31 35 38 37 34 38 48 58 65 71 69 65 69 83 102 123 141 154 165 173 177 183 193 203 206 196 175 160 158 168 173 170 166
188 201 206 209 213 205 191 188 191 200 211 218 224 235 255 287 310 319 322 317 311 312 317 321 332 345 351 348 345 352 5 12 15 21 26 24 13 2 6 20 30 33 27 21 20 21 20 17 18 25 32 31 28 29 33 37 43 48 49 51 56 62 66 71 76 79 81 86 95 109 124 137 148 155 162 170 179 182 170 155 150 146 143 145 148 150 150
188 197 204 206 205 199 196 200 207 214 218 220 227 239 260 289 307 315 319 316 311 312 316 318 326 340 351 355 351 354 8 16 16 19 25 28 28 28 33 39 42 37 26 23 24 23 19 17 20 29 37 39 36 33 33 35 41 48 54 58 60 63 65 68 70 74 79 85 93 106 120 133 140 142 141 142 143 141 138 139 140 139 137 139 141 141 140
186 192 212 220 215 210 210 214 220 225 226 225 227 235 258 289 307 316 320 316 310 313 317 317 321 333 346 354 353 351 7 15 12 15 19 15 10 12 21 32 41 38 30 30 33 28 21 21 29 36 41 44 44 41 37 36 38 44 51 57 60 62 64 66 69 72 75 79 84 91 100 112 123 126 126 127 129 130 132 134 135 134 134 134 134 134 137
194 198 217 234 232 224 222 223 225 227 227 227 229 236 260 290 307 316 318 312 309 317 324 321 317 324 339 352 356 356 7 9 359 359 3 357 349 356 16 28 37 39 35 36 37 31 23 24 34 42 46 49 50 48 45 44 45 47 50 54 59 62 64 66 68 71 74 78 83 87 91 98 106 112 116 121 125 127 129 130 130 131 131 132 134 137 141
201 214 232 246 250 240 229 225 225 226 227 228 230 236 259 287 303 313 315 309 307 317 327 328 322 318 333 359 11 20 32 23 1 352 350 350 354 12 29 35 38 43 44 46 44 37 28 28 36 43 47 49 50 51 53 54 56 58 59 59 61 65 68 71 74 77 79 83 88 92 96 101 106 111 116 121 124 126 128 130 131 133 135 138 142 147 146
207 225 240 247 252 253 244 234 229 229 228 226 227 234 254 279 296 308 311 306 305 315 328 334 327 306 319 14 28 32 39 41 24 360 351 351 359 11 23 31 33 38 46 50 48 41 35 36 40 43 45 45 47 49 53 57 62 66 68 69 69 69 71 73 77 81 83 85 88 91 96 100 105 111 118 122 125 129 132 132 132 134 137 139 141 143 142
221 232 242 241 241 247 250 245 241 240 234 227 225 230 245 264 282 296 302 303 307 318 333 342 329 283 282 24 38 36 35 38 35 14 360 356 353 355 5 16 23 32 44 51 50 46 45 46 47 47 45 44 43 45 48 53 59 63 66 69 72 73 74 75 77 80 83 85 87 89 92 95 99 104 110 115 119 123 127 127 127 128 130 132 135 139 142
238 242 249 250 248 249 252 252 254 255 250 238 229 229 237 249 264 279 290 298 305 315 333 350 339 287 277 360 40 39 32 28 29 31 26 13 357 351 359 13 29 47 58 59 57 55 55 54 53 52 49 45 43 43 46 50 56 59 61 65 69 73 77 79 80 80 81 83 86 88 91 94 96 98 102 106 110 114 118 122 125 128 132 136 141 147 153
245 245 248 252 254 256 258 259 258 257 255 247 239 236 238 243 250 261 273 282 291 303 318 335 338 308 291 322 20 33 29 26 30 41 47 36 19 14 23 39 55 67 71 71 69 68 67 64 60 58 54 50 47 45 47 50 54 58 61 64 67 71 75 78 81 83 84 84 83 84 87 91 94 97 100 104 108 113 118 123 129 134 140 147 154 162 170
253 250 250 253 256 257 259 263 263 259 254 252 250 247 244 243 244 250 259 265 272 283 298 310 316 313 304 308 357 25 26 25 36 54 70 86 92 84 81 84 85 82 80 79 77 75 74 72 68 64 61 58 54 52 52 54 55 57 61 65 68 71 73 74 77 82 87 89 90 92 92 93 96 100 104 107 111 117 124 131 139 149 158 169 181 192 200
264 261 259 260 261 260 258 259 261 260 259 258 258 256 252 246 243 243 247 253 257 262 274 289 295 293 284 279 306 8 16 20 37 61 89 111 118 119 114 108 104 99 93 90 87 84 80 77 73 68 65 62 60 59 59 59 58 59 61 64 67 70 73 76 79 82 86 91 97 102 106 109 114 118 122 126 133 140 148 158 173 186 196 205 213 217 220
263 262 262 264 266 265 263 262 261 261 261 262 263 261 257 250 245 242 241 243 247 250 253 263 274 274 266 255 246 245 264 292 360 98 126 127 121 121 117 111 108 104 99 95 92 89 86 83 79 75 70 67 65 64 64 64 65 65 65 65 67 69 71 74 78 81 85 90 96 100 104 108 112 115 117 120 123 125 128 135 142 149 157 172 184 189 191
261 258 259 261 263 267 271 273 272 270 266 263 263 263 260 254 249 244 239 237 241 245 247 247 254 260 258 249 239 229 229 234 230 220 212 201 175 148 131 119 112 108 104 99 94 91 89 85 81 78 74 72 70 69 68 68 68 69 69 70 72 73 73 74 76 80 85 92 98 102 104 105 106 107 109 111 112 113 116 121 127 130 131 129 129 133 141
266 262 262 264 266 268 268 268 269 272 269 262 258 259 260 258 255 252 244 237 237 242 244 242 242 244 247 245 242 235 224 216 218 223 221 207 193 183 173 156 135 119 110 103 98 93 90 88 85 82 79 77 75 73 72 71 70 70 70 71 73 75 77 78 79 80 84 91 98 103 106 108 109 109 109 109 109 111 114 118 122 125 123 118 113 111 114
270 269 272 275 275 272 266 259 259 265 267 260 254 254 256 256 255 254 248 240 236 237 240 241 240 237 238 241 242 237 227 217 217 223 225 217 205 196 192 186 168 140 121 111 105 99 95 92 89 87 86 84 83 80 77 75 73 72 71 71 72 74 77 79 80 82 85 90 96 102 106 108 108 108 107 105 104 104 105 106 108 110 111 111 110 109 108